WetterOnline ( https://www.wetteronline.de )

Wetter aktuell Endingen

Aktuelles Wetter: Lahr (156m)

6-stündlich | Neueste Meldungen
Ortszeit Temperatur Wetter
Mi, 23.10. 2:00 11.4° C Nebel
Di, 22.10. 20:00 12.2° C bedeckt
Di, 22.10. 14:00 14.8° C bedeckt
Di, 22.10. 8:00 12.5° C bedeckt
Di, 22.10. 2:00 12.8° C bedeckt
Mo, 21.10. 20:00 13.5° C Regen
Mo, 21.10. 14:00 14.4° C leichter Regen
Mo, 21.10. 8:00 14.0° C bedeckt
Ortszeit Temperatur Wetter
Mi, 23.10. 4:00 11.3° C Nebel
Mi, 23.10. 3:50 11.3° C Nebel
Mi, 23.10. 3:40 11.4° C Nebel
Mi, 23.10. 3:30 11.5° C Nebel
Mi, 23.10. 3:20 11.5° C Nebel
Mi, 23.10. 3:10 11.6° C Nebel
Mi, 23.10. 3:00 11.5° C Nebel
Mi, 23.10. 2:30 11.5° C Nebel
Mi, 23.10. 2:00 11.4° C Nebel
Mi, 23.10. 1:30 11.3° C Nebel
Mi, 23.10. 1:00 10.9° C Nebel
Ortszeit Relative Feuchte Sichtweite
Mi, 23.10. 2:00 99% 0.3 km
Di, 22.10. 20:00 96% 4.1 km
Di, 22.10. 14:00 87% 15 km
Di, 22.10. 8:00 98% 2.8 km
Di, 22.10. 2:00 97% 8 km
Mo, 21.10. 20:00 94% 30 km
Mo, 21.10. 14:00 86% 35 km
Mo, 21.10. 8:00 96% 10 km
Ortszeit Relative Feuchte Sichtweite
Mi, 23.10. 4:00 100% 0.3 km
Mi, 23.10. 3:50 100% -
Mi, 23.10. 3:40 99% -
Mi, 23.10. 3:30 99% 100 m
Mi, 23.10. 3:20 99% -
Mi, 23.10. 3:10 99% -
Mi, 23.10. 3:00 99% 0.2 km
Mi, 23.10. 2:30 99% 100 m
Mi, 23.10. 2:00 99% 0.3 km
Mi, 23.10. 1:30 99% 0.6 km
Mi, 23.10. 1:00 99% 0.5 km
Ortszeit Niederschlagsmenge Niederschlagsart
Mi, 23.10. 2:00 0.0 l/m2 in 6 Std. -
Di, 22.10. 20:00 0.0 l/m2 in 12 Std. -
Di, 22.10. 14:00 0.0 l/m2 in 6 Std. -
Di, 22.10. 8:00 0.5 l/m2 in 12 Std. -
Di, 22.10. 2:00 0.5 l/m2 in 6 Std. Regen
Mo, 21.10. 20:00 2 l/m2 in 12 Std. Regen
Mo, 21.10. 14:00 0.8 l/m2 in 6 Std. Regen
Mo, 21.10. 8:00 0.3 l/m2 in 12 Std. Regen
Ortszeit Niederschlagsmenge Niederschlagsart
Mi, 23.10. 4:00 0.0 l/m2 in 1 Std. -
Mi, 23.10. 3:50 keine Meldung -
Mi, 23.10. 3:40 keine Meldung -
Mi, 23.10. 3:30 0.0 l/m2 in 1 Std. -
Mi, 23.10. 3:20 keine Meldung -
Mi, 23.10. 3:10 keine Meldung -
Mi, 23.10. 3:00 0.0 l/m2 in 1 Std. -
Mi, 23.10. 2:30 0.0 l/m2 in 1 Std. -
Mi, 23.10. 2:00 0.0 l/m2 in 1 Std. -
Mi, 23.10. 1:30 0.0 l/m2 in 1 Std. -
Mi, 23.10. 1:00 0.0 l/m2 in 1 Std. -
Ortszeit Stärke Spitze Richtung
km/h Bft. km/h Grad Sektor
Mi, 23.10. 2:00 4 1 11 220° SW
Di, 22.10. 20:00 2 1 22 60° NO
Di, 22.10. 14:00 13 3 17 10° N
Di, 22.10. 8:00 9 2 13 30° NO
Di, 22.10. 2:00 4 1 7 270° W
Mo, 21.10. 20:00 4 1 11 180° S
Mo, 21.10. 14:00 7 2 22 210° SW
Mo, 21.10. 8:00 7 2 25 220° SW
Ortszeit Stärke Spitze Richtung
km/h Bft. km/h Grad Sektor
Mi, 23.10. 4:00 4 1 11 260° W
Mi, 23.10. 3:50 4 1 - 260° W
Mi, 23.10. 3:40 7 2 - 230° SW
Mi, 23.10. 3:30 4 1 7 200° S
Mi, 23.10. 3:20 4 1 - 200° S
Mi, 23.10. 3:10 4 1 - 160° S
Mi, 23.10. 3:00 4 1 7 190° S
Mi, 23.10. 2:30 0 0 7 - -
Mi, 23.10. 2:00 4 1 7 220° SW
Mi, 23.10. 1:30 4 1 7 250° W
Mi, 23.10. 1:00 4 1 7 190° S
Ortszeit Untergrenze Bedeckung Gattung
total tief tief mittel hoch
Mi, 23.10. 2:00 <30 m 8/8 0/8 - - -
Di, 22.10. 20:00 300 m 8/8 8/8 - - -
Di, 22.10. 14:00 360 m 8/8 8/8 - - -
Di, 22.10. 8:00 30 m 8/8 8/8 - - -
Di, 22.10. 2:00 1800 m 8/8 8/8 - - -
Mo, 21.10. 20:00 2100 m 7/8 7/8 - - -
Mo, 21.10. 14:00 1800 m 8/8 8/8 - - -
Mo, 21.10. 8:00 1800 m 8/8 8/8 - - -
Ortszeit Bedeckungsgrad in Achtel und Wolkenuntergrenze
Mi, 23.10. 4:00 8(<30m)
Mi, 23.10. 3:50 8(<30m)
Mi, 23.10. 3:40 8(<30m)
Mi, 23.10. 3:30 8(<30m)
Mi, 23.10. 3:20 8(<30m)
Mi, 23.10. 3:10 8(<30m)
Mi, 23.10. 3:00 8(<30m)
Mi, 23.10. 2:30 8(<30m)
Mi, 23.10. 2:00 8(<30m)
Mi, 23.10. 1:30 8(30m)
Mi, 23.10. 1:00 8(30m)
Ortszeit Luftdruck NN (hPa) Tendenz (hPa in 3 Std.)
Mi, 23.10. 2:00 1020 - 2,1
Di, 22.10. 20:00 1022 - 0,3
Di, 22.10. 14:00 1023 - 1,2
Di, 22.10. 8:00 1023 0,0
Di, 22.10. 2:00 1024 + 0,4
Mo, 21.10. 20:00 1022 + 1,2
Mo, 21.10. 14:00 1021 + 1,8
Mo, 21.10. 8:00 1016 + 2,3
Ortszeit Luftdruck NN (hPa) Tendenz (hPa in 3 Std.)
Mi, 23.10. 4:00 1018 - 2,0
Mi, 23.10. 3:50 1018 keine Meldung
Mi, 23.10. 3:40 1019 keine Meldung
Mi, 23.10. 3:30 1019 - 1,9
Mi, 23.10. 3:20 1019 keine Meldung
Mi, 23.10. 3:10 1019 keine Meldung
Mi, 23.10. 3:00 1019 - 1,9
Mi, 23.10. 2:30 1019 - 2,1
Mi, 23.10. 2:00 1020 - 2,1
Mi, 23.10. 1:30 1020 - 1,6
Mi, 23.10. 1:00 1020 - 1,4
Ortszeit Schneehöhe (cm)
Mi, 23.10. 2:00 0
Di, 22.10. 20:00 0
Di, 22.10. 14:00 0
Di, 22.10. 8:00 0
Di, 22.10. 2:00 0
Mo, 21.10. 20:00 0
Mo, 21.10. 14:00 0
Mo, 21.10. 8:00 0
Ortszeit Schneehöhe (cm)
Mi, 23.10. 4:00 0
Mi, 23.10. 3:50 0
Mi, 23.10. 3:40 0
Mi, 23.10. 3:30 0
Mi, 23.10. 3:20 0
Mi, 23.10. 3:10 0
Mi, 23.10. 3:00 0
Mi, 23.10. 2:30 0
Mi, 23.10. 2:00 0
Mi, 23.10. 1:30 0
Mi, 23.10. 1:00 0
Link zu dieser Seite / Seite empfehlen

Das Wetter in ...